Location: LDNL
(36.4545°S, 141.6685°E)
Time: 11:37:58
(UTC+10:00)

Tiros 1 despin weight - Pass Details

Date: 15 August 2022
Orbit: 590 x 639 km, 48.2° (Epoch: 23 September)

Event Time Altitude Azimuth Distance (km) Brightness Sun altitude
Rises 21:07:20 0° 354° (N) 2,847 - -38.1°
Reaches altitude 10° 21:10:33 10° 18° (NNE) 1,964 - -38.7°
Maximum altitude 21:12:58 14° 51° (NE) 1,713 - -39.2°
Drops below altitude 10° 21:15:24 10° 83° (E) 1,994 - -39.7°
Sets 21:18:42 0° 107° (ESE) 2,921 - -40.3°
